• In Hungary
  • List of Countries
  • For 7 days
  • Water Temperature
  • Satellite Maps
  • Weather Map
  • News
  • Weather Widgets
  • user-avatar
    Login

    Hourly Weather Santa Elena de Uairén

    Today, 25 June, Monday

    Time Temperature Precipitation Wind Pressure Humidity
    00:00 +21°C° 0.7 mm 1 mps 683 mmHg 91%
    01:00 +21°C° 0.7 mm 1 mps 682 mmHg 92%
    02:00 +21°C° 0 mm 1 mps 682 mmHg 92%
    03:00 +20°C° 0 mm 1 mps 682 mmHg 92%
    04:00 +20°C° 0 mm 1 mps 682 mmHg 92%
    05:00 +20°C° 0 mm 1 mps 682 mmHg 92%
    06:00 +21°C° 0 mm 1 mps 683 mmHg 89%
    07:00 +22°C° 0 mm 1 mps 683 mmHg 86%
    08:00 +23°C° 0 mm 1 mps 684 mmHg 84%
    09:00 +24°C° 0.2 mm 1 mps 684 mmHg 77%
    10:00 +26°C° 0.2 mm 2 mps 684 mmHg 71%
    11:00 +27°C° 0.2 mm 2 mps 684 mmHg 65%
    12:00 +27°C° 0.8 mm 2 mps 684 mmHg 66%
    13:00 +28°C° 0.8 mm 2 mps 683 mmHg 67%
    14:00 +28°C° 0.8 mm 2 mps 682 mmHg 68%
    15:00 +27°C° 1.5 mm 2 mps 682 mmHg 73%
    16:00 +26°C° 1.5 mm 2 mps 681 mmHg 78%
    17:00 +25°C° 1.5 mm 2 mps 681 mmHg 83%
    18:00 +24°C° 2.2 mm 2 mps 681 mmHg 86%
    19:00 +23°C° 2.2 mm 2 mps 682 mmHg 88%
    20:00 +22°C° 2.2 mm 1 mps 682 mmHg 91%
    21:00 +21°C° 1.7 mm 2 mps 682 mmHg 91%
    22:00 +21°C° 1.7 mm 2 mps 683 mmHg 92%
    23:00 +21°C° 1.7 mm 2 mps 683 mmHg 92%

    Tomorrow, 26 June, Tuesday

    Time Temperature Precipitation Wind Pressure Humidity
    00:00 +21°C° 1.3 mm 2 mps 682 mmHg 92%
    01:00 +22°C° 1.3 mm 1 mps 682 mmHg 92%
    02:00 +21°C° 1.3 mm 1 mps 682 mmHg 93%
    03:00 +21°C° 0.6 mm 1 mps 682 mmHg 93%
    04:00 +21°C° 0.6 mm 1 mps 682 mmHg 93%
    05:00 +21°C° 0.6 mm 1 mps 682 mmHg 93%
    06:00 +22°C° 0.2 mm 1 mps 682 mmHg 91%
    07:00 +22°C° 0.2 mm 1 mps 683 mmHg 89%
    08:00 +21°C° 0.2 mm 0 mps 683 mmHg 87%
    09:00 +24°C° 0.6 mm 1 mps 683 mmHg 84%
    10:00 +25°C° 0.6 mm 1 mps 684 mmHg 80%
    11:00 +26°C° 0.6 mm 1 mps 684 mmHg 77%
    12:00 +26°C° 1.3 mm 1 mps 683 mmHg 77%
    13:00 +26°C° 1.3 mm 1 mps 682 mmHg 78%
    14:00 +26°C° 1.3 mm 1 mps 682 mmHg 79%
    15:00 +25°C° 2.7 mm 1 mps 681 mmHg 82%
    16:00 +25°C° 2.7 mm 1 mps 681 mmHg 85%
    17:00 +24°C° 2.7 mm 1 mps 680 mmHg 88%
    18:00 +24°C° 2.2 mm 1 mps 681 mmHg 89%
    19:00 +23°C° 2.2 mm 1 mps 681 mmHg 90%
    20:00 +22°C° 2.2 mm 1 mps 682 mmHg 92%
    21:00 +22°C° 2 mm 1 mps 682 mmHg 92%
    22:00 +22°C° 2 mm 1 mps 683 mmHg 92%
    23:00 +22°C° 2 mm 1 mps 683 mmHg 92%

    Day after tomorrow, 27 June, Wednesday

    Time Temperature Precipitation Wind Pressure Humidity
    00:00 +22°C° 1.4 mm 1 mps 683 mmHg 92%
    01:00 +22°C° 1.4 mm 1 mps 682 mmHg 92%
    02:00 +21°C° 1.4 mm 1 mps 682 mmHg 92%
    03:00 +21°C° 0.1 mm 1 mps 681 mmHg 92%
    04:00 +21°C° 0.1 mm 1 mps 681 mmHg 92%
    05:00 +21°C° 0.1 mm 1 mps 681 mmHg 92%
    06:00 +22°C° 0.1 mm 1 mps 682 mmHg 89%
    07:00 +22°C° 0.1 mm 1 mps 683 mmHg 87%
    08:00 +23°C° 0.1 mm 1 mps 683 mmHg 84%
    09:00 +24°C° 0.6 mm 1 mps 683 mmHg 80%
    10:00 +25°C° 0.6 mm 2 mps 684 mmHg 76%
    11:00 +26°C° 0.6 mm 2 mps 684 mmHg 72%
    12:00 +26°C° 0.7 mm 2 mps 683 mmHg 73%
    13:00 +26°C° 0.7 mm 2 mps 682 mmHg 74%
    14:00 +26°C° 0.7 mm 2 mps 682 mmHg 75%
    15:00 +26°C° 1 mm 2 mps 681 mmHg 77%
    16:00 +26°C° 1 mm 2 mps 681 mmHg 80%
    17:00 +25°C° 1 mm 1 mps 681 mmHg 83%
    18:00 +24°C° 0.9 mm 1 mps 681 mmHg 86%
    19:00 +23°C° 0.9 mm 1 mps 682 mmHg 89%
    20:00 +22°C° 0.9 mm 1 mps 682 mmHg 92%
    21:00 +22°C° 0.8 mm 1 mps 682 mmHg 92%
    22:00 +21°C° 0.8 mm 1 mps 683 mmHg 93%
    23:00 +21°C° 0.8 mm 1 mps 683 mmHg 93%

    28 June, Thursday

    Time Temperature Precipitation Wind Pressure Humidity
    00:00 +21°C° 0.2 mm 1 mps 682 mmHg 93%
    01:00 +21°C° 0.2 mm 1 mps 682 mmHg 93%
    02:00 +20°C° 0.2 mm 1 mps 682 mmHg 93%
    03:00 +20°C° 0 mm 1 mps 682 mmHg 93%
    04:00 +20°C° 0 mm 1 mps 682 mmHg 93%
    05:00 +20°C° 0 mm 1 mps 682 mmHg 93%
    06:00 +21°C° 0 mm 1 mps 682 mmHg 90%
    07:00 +22°C° 0 mm 1 mps 683 mmHg 86%
    08:00 +21°C° 0 mm 0 mps 683 mmHg 83%
    09:00 +25°C° 0.2 mm 1 mps 683 mmHg 77%
    10:00 +26°C° 0.2 mm 1 mps 684 mmHg 71%
    11:00 +27°C° 0.2 mm 2 mps 684 mmHg 66%
    12:00 +27°C° 0.5 mm 2 mps 683 mmHg 67%
    13:00 +27°C° 0.5 mm 2 mps 682 mmHg 68%
    14:00 +27°C° 0.5 mm 2 mps 681 mmHg 70%
    15:00 +27°C° 0.8 mm 2 mps 681 mmHg 73%
    16:00 +26°C° 0.8 mm 2 mps 681 mmHg 77%
    17:00 +26°C° 0.8 mm 2 mps 681 mmHg 80%
    18:00 +24°C° 0.6 mm 2 mps 681 mmHg 84%
    19:00 +23°C° 0.6 mm 2 mps 681 mmHg 87%
    20:00 +21°C° 0.6 mm 2 mps 682 mmHg 91%
    21:00 +22°C° 0.2 mm 1 mps 682 mmHg 91%
    22:00 +22°C° 0.2 mm 1 mps 682 mmHg 92%
    23:00 +21°C° 0.2 mm 1 mps 683 mmHg 92%

    29 June, Friday

    Time Temperature Precipitation Wind Pressure Humidity
    00:00 +21°C° 0 mm 1 mps 682 mmHg 92%
    01:00 +21°C° 0 mm 1 mps 682 mmHg 92%
    02:00 +21°C° 0 mm 1 mps 681 mmHg 92%
    03:00 +20°C° 0 mm 1 mps 681 mmHg 92%
    04:00 +20°C° 0 mm 1 mps 681 mmHg 92%
    05:00 +20°C° 0 mm 1 mps 682 mmHg 91%
    06:00 +21°C° 0 mm 1 mps 682 mmHg 88%
    07:00 +22°C° 0 mm 1 mps 683 mmHg 84%
    08:00 +23°C° 0 mm 2 mps 684 mmHg 80%
    09:00 +25°C° 0 mm 2 mps 684 mmHg 72%
    10:00 +27°C° 0 mm 2 mps 684 mmHg 63%
    11:00 +28°C° 0 mm 3 mps 684 mmHg 55%
    12:00 +29°C° 0.1 mm 3 mps 683 mmHg 53%
    13:00 +29°C° 0.1 mm 3 mps 683 mmHg 52%
    14:00 +29°C° 0.1 mm 3 mps 682 mmHg 50%
    15:00 +29°C° 0.3 mm 3 mps 682 mmHg 55%
    16:00 +28°C° 0.3 mm 2 mps 681 mmHg 60%
    17:00 +27°C° 0.3 mm 2 mps 681 mmHg 65%
    18:00 +26°C° 0.3 mm 2 mps 681 mmHg 70%
    19:00 +24°C° 0.3 mm 2 mps 681 mmHg 76%
    20:00 +23°C° 0.3 mm 2 mps 682 mmHg 81%
    21:00 +21°C° 0.3 mm 2 mps 682 mmHg 83%
    22:00 +21°C° 0.3 mm 2 mps 682 mmHg 85%
    23:00 +20°C° 0.3 mm 2 mps 683 mmHg 87%

    30 June, Saturday

    Time Temperature Precipitation Wind Pressure Humidity
    00:00 +20°C° 0.1 mm 2 mps 682 mmHg 88%
    01:00 +20°C° 0.1 mm 2 mps 682 mmHg 89%
    02:00 +19°C° 0.1 mm 2 mps 681 mmHg 89%
    03:00 +19°C° 0 mm 2 mps 681 mmHg 89%
    04:00 +20°C° 0 mm 1 mps 681 mmHg 89%
    05:00 +20°C° 0 mm 1 mps 681 mmHg 89%
    06:00 +21°C° 0 mm 1 mps 682 mmHg 85%
    07:00 +22°C° 0 mm 1 mps 683 mmHg 81%
    08:00 +23°C° 0 mm 1 mps 683 mmHg 77%
    09:00 +25°C° 0.1 mm 1 mps 683 mmHg 70%
    10:00 +26°C° 0.1 mm 2 mps 683 mmHg 64%
    11:00 +28°C° 0.1 mm 2 mps 684 mmHg 57%
    12:00 +28°C° 0.5 mm 2 mps 683 mmHg 59%
    13:00 +28°C° 0.5 mm 2 mps 682 mmHg 60%
    14:00 +28°C° 0.5 mm 2 mps 681 mmHg 61%
    15:00 +28°C° 0.8 mm 2 mps 681 mmHg 66%
    16:00 +27°C° 0.8 mm 2 mps 681 mmHg 70%
    17:00 +26°C° 0.8 mm 2 mps 680 mmHg 74%
    18:00 +25°C° 1 mm 2 mps 681 mmHg 79%
    19:00 +24°C° 1 mm 1 mps 681 mmHg 84%
    20:00 +22°C° 1 mm 1 mps 681 mmHg 89%
    21:00 +22°C° 1.3 mm 1 mps 681 mmHg 90%
    22:00 +22°C° 1.3 mm 1 mps 682 mmHg 91%
    23:00 +21°C° 1.3 mm 1 mps 682 mmHg 91%
    Show more